Location: Bondula
(6.3703°N, 10.6756°W)
Time: 17:24:31
(UTC+00:00)

Atlas Centaur 2 - Pass Details

Date: 22 October 2019
Orbit: 459 x 1311 km, 30.4° (Epoch: 19 November)

Event Time Altitude Azimuth Distance (km) Brightness Sun altitude
Rises 05:59:07 0° 206° (SSW) 2,921 4.9 -8.1°
Reaches altitude 10° 06:01:56 10° 186° (S) 2,157 4.4 -7.4°
Maximum altitude 06:05:28 19° 142° (SE) 1,824 4.7 -6.5°
Drops below altitude 10° 06:09:32 10° 100° (E) 2,558 6.6 -5.5°
Sets 06:13:15 0° 83° (E) 3,691 7.3 -4.6°
